Location: Cheching
(60.0667°N, 164.2167°W)
Time: 11:47:22
(UTC+00:00)

UNISAT 6 - Pass Details

Date: 21 January 2021
Orbit: 607 x 687 km, 97.7° (Epoch: 24 February)

Event Time Altitude Azimuth Distance (km) Brightness Sun altitude
Rises 15:15:43 0° 102° (ESE) 2,887 ? -31.0°
Reaches altitude 10° 15:18:39 10° 80° (E) 1,996 ? -30.6°
Maximum altitude 15:21:09 15° 45° (NE) 1,682 ? -30.3°
Drops below altitude 10° 15:23:42 10° 9° (N) 2,026 ? -30.0°
Enters shadow 15:24:47 - 359° (N) 2,322 ? -29.9°
